Zurück zum Katalog

STARLINK-5864

AktivKommunikationVLEO
NORAD 55940·PAYLOAD·🇺🇸 United States

Gestartet Mar 17, 2023 von Vandenberg Space Force Base

Loading…

Nächste Überflüge (nächste 24 Stunden)

TLE

AktuellSource: CelesTrak SupGP

Epoche: Sep 15, 2026, 02:59 UTC

1 55940C 23037AC  26258.12479167  .00420760  00000+0  33216-1 0  2580
2 55940  70.0003 166.8049 0003174 269.5431 182.6316 15.00415749    18

Verfolge STARLINK-5864 in Echtzeit mit AllMySat

Download on the App Store